Find Rassvet-2 No. 3

NORAD ID: 59781 Int'l Des: 2024-092 Owner: B1440 Country: RU Constellation: Rassvet operational
LEOCIRCULARRETROGRADESSO

リアルタイム位置

3D地球を読み込み中...

Rassvet-2 No. 3について

説明を読み込み中...

次回通過

Passes for default location (London). Set your location on the main map for personalized predictions.

高度履歴

Loading altitude history...

軌道要素

1 59781U 24092J 26104.84194076 .00000091 00000-0 50721-4 0 9998
2 59781 98.6602 223.9770 0012773 41.1404 319.0740 14.31822332 99839
Epoch: Apr 14, 2026 • Age: 7 hours

現在のステータス

高度 780.9 km
速度 7.47 km/s
衛星直下点 33.08°N, 30.75°W
打ち上げ日 May 16, 2024
運用期間 1.9 years
タイプ other

技術仕様

分類 Payload
質量 120.00 kg
乾燥質量 120.00 kg
総質量 120.00 kg
長さ 1.20 m
直径 0.60 m
スパン 5.00 m
形状 Box+2 pan
製造者 B1440
バスタイプ Rassvet-2
フェーズステータス In Orbit
所有者/国 B1440/RU

Most Searched